Other Surface Observations
Issued by NWS

Home | Current Version | Previous Version | Text Only | Print | Product List | Glossary On
Versions: 1 2 3 4 5 6 7 8 9 10 11 12 13 14 15 16 17 18 19 20 21 22 23 24 25 26 27 28 29 30 31 32 33 34 35 36 37 38 39 40 41 42 43 44 45 46 47 48 49 50
000
SXUS52 KTAE 271018
OSOTAE
OSOTAE
North Florida/South Alabama/Southwest Georgia Weather Roundup
National Weather Service Tallahassee Florida
500 AM EST TUE JAN 27 2015

Note: "fair" indicates few or no clouds below 12,000 feet with no
significant weather and/or obstructions to visibility.

!FLZ017-115-028-034-025-271100
...North Florida...

CITY           SKY/WX    TMP DP  RH WIND       PRES   REMARKS
TALLAHASSEE    CLEAR     35  31  85 SW6       30.00F WCI  30
APALACHICOLA   CLEAR     45  36  70 N3        30.01F
PERRY          CLEAR     35  34  96 W3        30.00F
CROSS CITY       N/A     38  34  85 W5        30.00S WCI  34
JACKSONVILLE   CLEAR     39  34  82 W7        29.94F WCI  34
$$

!FLZ112-006-005-002-011-271100
...Florida Panhandle...

CITY           SKY/WX    TMP DP  RH WIND       PRES   REMARKS
MARIANNA       CLEAR     37  34  89 SW5       29.98F WCI  33
BONIFAY        FAIR      35  33  92 CALM      30.00F
PANAMA CITY NW FAIR      37  34  89 CALM      30.00F
TYNDALL AFB    CLEAR     44  37  77 NW6       30.02F WCI  41
TYND DRONE APT FAIR      47  39  74 NW3       30.00F
DE FUNIAK SPR  FAIR      37  32  82 W5        30.00S WCI  34
EGLIN AFB      CLEAR     37  33  84 W7        30.00F WCI  32
DESTIN         CLEAR     50  36  58 VRB3      30.00F
HURLBURT       CLEAR     45  33  63 NW5       30.00F WCI  42
CRESTVIEW      CLEAR     34  30  85 CALM      30.01F
PENSACOLA      CLEAR     46  34  62 W8        30.01F WCI  42
$$

!ALZ063-066-271100
...South Alabama...

CITY           SKY/WX    TMP DP  RH WIND       PRES   REMARKS
DOTHAN         CLEAR     36  31  82 SW7       29.99F WCI  30
OZARK CAIRNS   CLEAR     33  31  90 SW3       29.96F
FT RUCKER HELI CLEAR     31  28  89 CALM      29.96F
RUCKER HELI 3  FAIR      36  33  87 SW5       29.97F WCI  32
RUCKER HELI 2  FAIR      33  32  96 S5        29.96F WCI  29
FLORALA APT    CLEAR     37  32  82 CALM      30.00F
ANDALUSIA      CLEAR     40  32  73 W6        29.97F WCI  36
TROY           CLEAR     34  29  82 CALM      29.95F
EUFALA         FAIR      32  29  88 CALM      29.94F
MOBILE         CLEAR     42  33  70 W3        30.02F
$$

!GAZ120>161-271100
...Southwest and South Central Georgia...

CITY           SKY/WX    TMP DP  RH WIND       PRES   REMARKS
THOMASVILLE    FAIR      37  37 100 CALM      29.97S
BAINBRIDGE     CLEAR     37  36  93 SW3       29.98S
MOODY AFB      CLEAR     39  33  81 W6        29.94F WCI  34
VALDOSTA       CLEAR     35  33  92 CALM      29.96F
MOULTRIE       CLEAR     36  36 100 SW3       29.96S
BLAKELY        CLEAR     36  36 100 CALM      29.96F
ALBANY         CLEAR     36  32  85 W3        29.97F
TIFTON         FAIR      39  32  75 W6        29.94F WCI  35
FITZGERALD     FAIR      41  32  72 W6        29.95F WCI  37
CORDELE        FAIR      37  32  84 CALM      29.94F
AMERICUS       FAIR      34  32  93 W6        29.95S WCI  29
HOMERVILLE     MOCLDY    41  36  81 W3        29.94F
$$

!GMZ750-755-770-775-271100
...Coastal and Buoy Obs...

STATION/POSITION TIME  TEMP    WIND        PRES    VSBY  WAVE
                       AIR SEA DIR/SP/G                  HT/PER
                 (UTC) (F)     (DEG/KT/KT) (MB)    (MI)  (FT/S)
KEATON BEACH     1000   48     310/ 12/ 15 1016.0F
CEDAR KEY        1000   46     350/  4/  7 1016.7R
C TOWER          1000   53     320/ 12/ 14 1016.4F
APALACHICOLA BUO 1000   60 68  310/ 12/ 16 1016.5F         6/ 7
PANAMA CITY BUOY 0943   63 70  310/ 17/ 21 1017.1F         5/ 6
MOBILE BUOY      0855   61 70  290/ 19/ 23 1018.1F         5/ 5
ORANGE BCH AL BU 1000   58 62  280/ 19/ 21 1016.1F         4/ 8
$$



USA.gov is the U.S. government's official web portal to all federal, state and local government web resources and services.